Location: Kawakawa
(35.3830°S, 174.0670°E)
Time: 23:33:22
(UTC+12:00)

ISS - Visible Passes

Search period start: 14 May 2021 00:00
Search period end: 24 May 2021 00:00
Orbit: 417 x 422 km, 51.6° (Epoch: 14 May)

Date Brightness Start Highest point End Pass type
(mag) Time Alt. Az. Time Alt. Az. Time Alt. Az.
19 May -0.7 06:25:32 10° N 06:28:07 20° NE 06:30:43 10° E visible
20 May -0.3 05:39:47 10° NE 05:40:51 11° NE 05:41:54 10° ENE visible
21 May -3.4 06:26:23 10° NW 06:29:47 72° NE 06:33:13 10° SE visible
22 May -2.2 05:39:44 13° NNW 05:42:22 37° NE 05:45:35 10° ESE visible
23 May -1.0 04:55:41 19° ENE 04:55:41 19° ENE 04:57:39 10° E visible
23 May -3.0 06:28:43 11° WNW 06:31:40 34° SW 06:34:52 10° SSE visible
